| time (UTC) | temp F | wind direction | speed MPH | gust MPH | rain 1hr in | rain 24hr in | rain mn in | humidity % | barometer mb |
| 20260505052703 | 47 | 336 | 8.0 | 11.0 | 0.00 | 0.00 | 0.00 | 86 | 1017.2 |
| 20260505051803 | 47 | 337 | 8.0 | 11.0 | 0.00 | 0.00 | 0.00 | 85 | 1017.2 |
| 20260505050903 | 47 | 336 | 7.0 | 10.0 | 0.00 | 0.00 | 0.00 | 85 | 1017.2 |
| 20260505040903 | 47 | 337 | 10.0 | 13.0 | 0.00 | 0.00 | 0.00 | 85 | 1017.0 |
| 20260505040004 | 47 | 336 | 9.0 | 13.0 | 0.00 | 0.00 | 0.00 | 85 | 1017.1 |
| 20260505035403 | 47 | 335 | 9.0 | 13.0 | 0.00 | 0.00 | 0.00 | 85 | 1017.1 |
| 20260505034503 | 47 | 336 | 9.0 | 12.0 | 0.00 | 0.00 | 0.00 | 85 | 1017.2 |
| 20260505033603 | 47 | 335 | 9.0 | 13.0 | 0.00 | 0.00 | 0.00 | 85 | 1017.2 |
| 20260505032703 | 47 | 334 | 8.0 | 13.0 | 0.00 | 0.00 | 0.00 | 85 | 1017.2 |
| 20260505031803 | 47 | 336 | 8.0 | 11.0 | 0.00 | 0.00 | 0.00 | 84 | 1017.3 |
| 20260505030903 | 47 | 338 | 7.0 | 10.0 | 0.00 | 0.00 | 0.00 | 84 | 1017.3 |
| 20260505030003 | 47 | 337 | 6.0 | 10.0 | 0.00 | 0.00 | 0.00 | 84 | 1017.3 |
| 20260505025403 | 47 | 334 | 6.0 | 9.0 | 0.00 | 0.00 | 0.00 | 84 | 1017.3 |
| 20260505024503 | 47 | 334 | 6.0 | 10.0 | 0.00 | 0.00 | 0.00 | 84 | 1017.4 |
| 20260505023603 | 47 | 332 | 5.0 | 10.0 | 0.00 | 0.00 | 0.00 | 84 | 1017.4 |
| 20260505022703 | 47 | 332 | 6.0 | 11.0 | 0.00 | 0.00 | 0.00 | 83 | 1017.4 |
| 20260505021803 | 47 | 336 | 8.0 | 11.0 | 0.00 | 0.00 | 0.00 | 83 | 1017.4 |
| 20260505020903 | 47 | 337 | 9.0 | 12.0 | 0.00 | 0.00 | 0.00 | 83 | 1017.4 |
| 20260505020003 | 47 | 336 | 9.0 | 15.0 | 0.00 | 0.00 | 0.00 | 82 | 1017.4 |
| 20260505015403 | 48 | 336 | 10.0 | 15.0 | 0.00 | 0.00 | 0.00 | 82 | 1017.4 |
| 20260505014503 | 48 | 336 | 10.0 | 14.0 | 0.00 | 0.00 | 0.00 | 82 | 1017.5 |
| 20260505013603 | 48 | 334 | 9.0 | 14.0 | 0.00 | 0.00 | 0.00 | 82 | 1017.5 |
| 20260505012703 | 48 | 334 | 8.0 | 15.0 | 0.00 | 0.00 | 0.00 | 82 | 1017.5 |
| 20260505011803 | 48 | 333 | 8.0 | 14.0 | 0.00 | 0.00 | 0.00 | 81 | 1017.6 |
| 20260505010903 | 48 | 333 | 8.0 | 14.0 | 0.00 | 0.00 | 0.00 | 80 | 1017.6 |
| 20260505010003 | 48 | 332 | 7.0 | 14.0 | 0.00 | 0.00 | 0.00 | 80 | 1017.6 |
| 20260505005403 | 48 | 330 | 8.0 | 15.0 | 0.00 | 0.00 | 0.00 | 80 | 1017.6 |
| 20260505004503 | 48 | 333 | 9.0 | 17.0 | 0.00 | 0.00 | 0.00 | 80 | 1017.6 |
| 20260505003603 | 48 | 333 | 8.0 | 13.0 | 0.00 | 0.00 | 0.00 | 80 | 1017.7 |
| 20260505002703 | 48 | 334 | 8.0 | 16.0 | 0.00 | 0.00 | 0.00 | 80 | 1017.8 |
| 20260505001803 | 48 | 336 | 10.0 | 16.0 | 0.00 | 0.00 | 0.00 | 80 | 1017.7 |
| 20260505000903 | 48 | 335 | 9.0 | 15.0 | 0.00 | 0.00 | 0.00 | 80 | 1017.7 |
| 20260505000003 | 48 | 335 | 9.0 | 15.0 | 0.00 | 0.00 | 0.00 | 80 | 1017.8 |
| 20260504235403 | 48 | 335 | 9.0 | 15.0 | 0.00 | 0.00 | 0.00 | 79 | 1017.8 |
| 20260504234503 | 48 | 333 | 8.0 | 14.0 | 0.00 | 0.00 | 0.00 | 79 | 1017.8 |
| 20260504233603 | 48 | 331 | 7.0 | 14.0 | 0.00 | 0.00 | 0.00 | 78 | 1017.8 |
| 20260504232703 | 49 | 335 | 8.0 | 15.0 | 0.00 | 0.00 | 0.00 | 78 | 1017.8 |
| 20260504231803 | 49 | 333 | 9.0 | 15.0 | 0.00 | 0.00 | 0.00 | 77 | 1017.8 |
| 20260504230903 | 50 | 334 | 9.0 | 15.0 | 0.00 | 0.00 | 0.00 | 76 | 1017.9 |
| 20260504230003 | 50 | 333 | 9.0 | 17.0 | 0.00 | 0.00 | 0.00 | 75 | 1018.0 |
| 20260504225403 | 50 | 332 | 7.0 | 14.0 | 0.00 | 0.00 | 0.00 | 75 | 1017.9 |
| 20260504224503 | 50 | 335 | 9.0 | 14.0 | 0.00 | 0.00 | 0.00 | 75 | 1018.0 |
| 20260504223603 | 51 | 336 | 8.0 | 13.0 | 0.00 | 0.00 | 0.00 | 75 | 1018.0 |
| 20260504222703 | 51 | 336 | 8.0 | 12.0 | 0.00 | 0.00 | 0.00 | 75 | 1018.1 |
| 20260504221803 | 51 | 336 | 7.0 | 12.0 | 0.00 | 0.00 | 0.00 | 75 | 1018.1 |
| 20260504220903 | 51 | 334 | 8.0 | 13.0 | 0.00 | 0.01 | 0.00 | 76 | 1018.1 |
| 20260504220003 | 52 | 333 | 9.0 | 14.0 | 0.00 | 0.01 | 0.00 | 75 | 1018.1 |
| 20260504215403 | 52 | 336 | 8.0 | 14.0 | 0.00 | 0.02 | 0.00 | 75 | 1018.1 |
| 20260504214503 | 52 | 337 | 9.0 | 15.0 | 0.00 | 0.04 | 0.00 | 76 | 1018.1 |
| 20260504213603 | 52 | 339 | 9.0 | 17.0 | 0.00 | 0.07 | 0.00 | 77 | 1018.2 |
| 20260504212703 | 53 | 338 | 7.0 | 13.0 | 0.00 | 0.08 | 0.00 | 78 | 1018.2 |
| 20260504211803 | 53 | 341 | 7.0 | 14.0 | 0.00 | 0.09 | 0.00 | 78 | 1018.1 |
| 20260504210903 | 53 | 343 | 5.0 | 11.0 | 0.00 | 0.11 | 0.00 | 78 | 1018.1 |
| 20260504210003 | 53 | 346 | 5.0 | 10.0 | 0.00 | 0.13 | 0.00 | 78 | 1018.1 |
| 20260504205403 | 53 | 349 | 5.0 | 10.0 | 0.00 | 0.13 | 0.00 | 78 | 1018.0 |
| 20260504204503 | 53 | 345 | 5.0 | 10.0 | 0.00 | 0.13 | 0.00 | 79 | 1018.0 |
| 20260504203603 | 53 | 342 | 6.0 | 11.0 | 0.00 | 0.13 | 0.00 | 79 | 1018.0 |
| 20260504202703 | 53 | 337 | 7.0 | 12.0 | 0.00 | 0.14 | 0.00 | 79 | 1017.8 |
| 20260504201803 | 54 | 337 | 7.0 | 12.0 | 0.00 | 0.14 | 0.00 | 79 | 1017.6 |
| 20260504200903 | 54 | 338 | 6.0 | 12.0 | 0.00 | 0.16 | 0.00 | 78 | 1017.6 |
| 20260504200003 | 54 | 335 | 6.0 | 11.0 | 0.00 | 0.16 | 0.00 | 77 | 1017.5 |
| 20260504195403 | 54 | 338 | 5.0 | 9.0 | 0.00 | 0.17 | 0.00 | 76 | 1017.5 |
| 20260504194503 | 54 | 348 | 6.0 | 11.0 | 0.00 | 0.17 | 0.00 | 76 | 1017.3 |
| 20260504193603 | 55 | 348 | 6.0 | 9.0 | 0.00 | 0.18 | 0.00 | 75 | 1017.3 |
| 20260504192703 | 55 | 353 | 6.0 | 12.0 | 0.00 | 0.20 | 0.00 | 75 | 1017.3 |
| 20260504191803 | 55 | 351 | 7.0 | 15.0 | 0.00 | 0.20 | 0.00 | 74 | 1017.2 |
| 20260504190903 | 55 | 352 | 6.0 | 12.0 | 0.00 | 0.20 | 0.00 | 74 | 1017.2 |
| 20260504190003 | 55 | 348 | 8.0 | 14.0 | 0.00 | 0.20 | 0.00 | 74 | 1017.1 |
| 20260504185403 | 56 | 345 | 8.0 | 14.0 | 0.00 | 0.21 | 0.00 | 74 | 1017.1 |
| 20260504184503 | 56 | 347 | 7.0 | 14.0 | 0.00 | 0.22 | 0.00 | 74 | 1017.0 |
| 20260504183603 | 56 | 348 | 7.0 | 12.0 | 0.00 | 0.22 | 0.00 | 73 | 1017.0 |
| 20260504182703 | 56 | 346 | 6.0 | 11.0 | 0.00 | 0.22 | 0.00 | 73 | 1016.9 |
| 20260504181803 | 57 | 340 | 6.0 | 11.0 | 0.00 | 0.22 | 0.00 | 73 | 1016.9 |
| 20260504180903 | 57 | 342 | 8.0 | 14.0 | 0.00 | 0.22 | 0.00 | 73 | 1016.8 |
| 20260504180003 | 57 | 344 | 7.0 | 14.0 | 0.00 | 0.22 | 0.00 | 72 | 1016.8 |
| 20260504175404 | 57 | 344 | 7.0 | 13.0 | 0.00 | 0.22 | 0.00 | 73 | 1016.8 |
| 20260504174503 | 57 | 344 | 8.0 | 15.0 | 0.00 | 0.22 | 0.00 | 72 | 1016.7 |
| 20260504173603 | 57 | 349 | 9.0 | 13.0 | 0.00 | 0.22 | 0.00 | 72 | 1016.7 |
| 20260504172703 | 57 | 348 | 7.0 | 15.0 | 0.00 | 0.22 | 0.00 | 72 | 1016.7 |
| 20260504171803 | 57 | 346 | 8.0 | 13.0 | 0.00 | 0.22 | 0.00 | 72 | 1016.7 |
| 20260504170903 | 57 | 349 | 8.0 | 14.0 | 0.00 | 0.22 | 0.00 | 71 | 1016.7 |
| 20260504150903 | 59 | 359 | 6.0 | 13.0 | 0.00 | 0.24 | 0.00 | 65 | 1016.8 |
| 20260504140903 | 59 | 355 | 4.0 | 10.0 | 0.00 | 0.24 | 0.00 | 68 | 1016.8 |
| 20260504081803 | 53 | 352 | 5.0 | 11.0 | 0.00 | 0.33 | 0.00 | 89 | 1015.9 |
| 20260504080903 | 52 | 346 | 6.0 | 11.0 | 0.00 | 0.33 | 0.00 | 90 | 1015.9 |